Back to catalog

THORAD AGENA D DEB

AlivePO
NORAD 4929·DEBRIS·🇺🇸 United States

Launched Apr 8, 1970 from Vandenberg Space Force Base

Loading…

Next Passes

TLE

Source: Space-Track
1 04929U 70025FV  26228.45566443  .00000148  00000-0  66431-3 0  9991
2 04929  99.6709 210.6107 0449805 306.3196 211.5864 12.65759487592154

Track THORAD AGENA D DEB in real time with AllMySat

Download on the App Store